SXS7LM LTBJ-LTDA

Flight info

Callsign SXS7LM
Flight time 1h 10m
Altitude 39000
Route SISVO UT489 AYT UR55 MUT/N0462F380 UW74 ADA
Aircraft B38M/M-SADE2E3GIJ4J7RW/LB1D1

Departure

Time 2026-05-06 12:04
Airport Adnan Menderes International Airport (LTBJ)

Arrival

Time 2026-05-06 13:14
Airport Hatay Airport (LTDA)
Time Latitude Longitude Altitude Speed Heading
2026-05-06 11:40 38.29232 27.15245 411 ft 0 kts 76°
2026-05-06 11:55 38.29229 27.15227 412 ft 2 kts 76°
2026-05-06 11:56 38.29225 27.15207 412 ft 2 kts 76°
2026-05-06 11:56 38.29225 27.15184 412 ft 2 kts 112°
2026-05-06 11:56 38.29236 27.15165 412 ft 2 kts 146°
2026-05-06 11:56 38.29247 27.15158 412 ft 1 kts 167°
2026-05-06 11:57 38.29252 27.15157 411 ft 0 kts 167°
2026-05-06 11:59 38.29245 27.15159 412 ft 2 kts 167°
2026-05-06 11:59 38.29205 27.15171 412 ft 6 kts 166°
2026-05-06 11:59 38.29145 27.15190 413 ft 8 kts 166°
2026-05-06 11:59 38.29065 27.15213 413 ft 11 kts 167°
2026-05-06 12:00 38.28995 27.15291 413 ft 13 kts 134°
2026-05-06 12:00 38.28889 27.15335 413 ft 15 kts 167°
2026-05-06 12:00 38.28758 27.15374 412 ft 17 kts 167°
2026-05-06 12:00 38.28615 27.15416 411 ft 19 kts 167°
2026-05-06 12:01 38.28465 27.15461 409 ft 20 kts 166°
2026-05-06 12:01 38.28309 27.15508 405 ft 20 kts 166°
2026-05-06 12:01 38.28144 27.15557 399 ft 22 kts 166°
2026-05-06 12:01 38.27970 27.15610 394 ft 20 kts 166°
2026-05-06 12:02 38.27829 27.15651 390 ft 14 kts 167°
2026-05-06 12:02 38.27758 27.15735 387 ft 14 kts 75°
2026-05-06 12:02 38.27784 27.15875 386 ft 14 kts 76°
2026-05-06 12:02 38.27810 27.16005 386 ft 12 kts 77°
2026-05-06 12:03 38.27834 27.16102 389 ft 8 kts 46°
2026-05-06 12:03 38.27874 27.16106 390 ft 4 kts 347°
2026-05-06 12:03 38.28007 27.16066 393 ft 52 kts 344°
2026-05-06 12:03 38.28609 27.15885 410 ft 119 kts 347°
2026-05-06 12:04 38.29646 27.15563 444 ft 171 kts 344°
2026-05-06 12:04 38.30946 27.15204 1285 ft 168 kts 345°
2026-05-06 12:04 38.32160 27.14754 2095 ft 170 kts 343°
2026-05-06 12:04 38.33491 27.14231 2641 ft 184 kts 343°
2026-05-06 12:05 38.34926 27.13724 3217 ft 196 kts 344°
2026-05-06 12:05 38.36475 27.13179 3752 ft 211 kts 343°
2026-05-06 12:05 38.38146 27.12539 4296 ft 231 kts 342°
2026-05-06 12:05 38.39919 27.11830 5041 ft 244 kts 343°
2026-05-06 12:06 38.41726 27.11124 5710 ft 257 kts 344°
2026-05-06 12:06 38.43537 27.10420 6544 ft 262 kts 343°
2026-05-06 12:06 38.45262 27.09231 7485 ft 266 kts 317°
2026-05-06 12:06 38.46261 27.06908 8357 ft 279 kts 284°
2026-05-06 12:07 38.46200 27.04283 9164 ft 292 kts 259°
2026-05-06 12:07 38.45368 27.01845 9925 ft 303 kts 239°
2026-05-06 12:07 38.43816 26.99754 10563 ft 318 kts 218°
2026-05-06 12:07 38.41616 26.98506 11058 ft 336 kts 192°
2026-05-06 12:08 38.38900 26.98483 11564 ft 352 kts 168°
2026-05-06 12:08 38.36135 26.99395 12071 ft 366 kts 163°
2026-05-06 12:08 38.33396 27.00519 12538 ft 380 kts 157°
2026-05-06 12:08 38.30782 27.02510 12995 ft 392 kts 136°
2026-05-06 12:09 38.28808 27.05522 13442 ft 402 kts 122°
2026-05-06 12:09 38.26995 27.09015 13783 ft 417 kts 120°
2026-05-06 12:09 38.25204 27.12537 14229 ft 429 kts 121°
2026-05-06 12:09 38.23369 27.16051 14963 ft 433 kts 122°
2026-05-06 12:10 38.21502 27.19545 15636 ft 438 kts 122°
2026-05-06 12:10 38.19717 27.22838 16239 ft 444 kts 123°
2026-05-06 12:10 38.17719 27.26494 16933 ft 449 kts 123°
2026-05-06 12:10 38.15723 27.30132 17568 ft 454 kts 123°
2026-05-06 12:11 38.13700 27.33816 18225 ft 458 kts 123°
2026-05-06 12:11 38.11645 27.37555 18846 ft 463 kts 123°
2026-05-06 12:11 38.09537 27.41388 19496 ft 467 kts 123°
2026-05-06 12:11 38.07465 27.45155 20036 ft 474 kts 123°
2026-05-06 12:12 38.05326 27.49041 20622 ft 479 kts 123°
2026-05-06 12:12 38.03184 27.52929 21203 ft 483 kts 123°
2026-05-06 12:12 38.00975 27.56933 21759 ft 488 kts 122°
2026-05-06 12:12 37.98759 27.60947 22335 ft 492 kts 123°
2026-05-06 12:13 37.96542 27.64961 22854 ft 496 kts 123°
2026-05-06 12:13 37.94472 27.68703 23359 ft 500 kts 123°
2026-05-06 12:13 37.92470 27.72319 23787 ft 505 kts 123°
2026-05-06 12:13 37.90429 27.76000 24237 ft 509 kts 123°
2026-05-06 12:14 37.88383 27.79684 24696 ft 512 kts 123°
2026-05-06 12:14 37.86322 27.83396 25132 ft 516 kts 123°
2026-05-06 12:14 37.84214 27.87185 25605 ft 518 kts 123°
2026-05-06 12:14 37.82142 27.90904 26279 ft 516 kts 123°
2026-05-06 12:15 37.79814 27.95080 27038 ft 512 kts 123°
2026-05-06 12:15 37.77502 27.99223 27847 ft 508 kts 123°
2026-05-06 12:15 37.75465 28.02871 28419 ft 507 kts 123°
2026-05-06 12:15 37.73394 28.06573 28903 ft 507 kts 123°
2026-05-06 12:16 37.71341 28.10239 29356 ft 509 kts 123°
2026-05-06 12:16 37.69030 28.14360 29885 ft 509 kts 123°
2026-05-06 12:16 37.66710 28.18494 30398 ft 510 kts 123°
2026-05-06 12:16 37.64434 28.22546 30943 ft 508 kts 123°
2026-05-06 12:17 37.62123 28.26655 31477 ft 507 kts 123°
2026-05-06 12:17 37.59782 28.30811 31977 ft 507 kts 123°
2026-05-06 12:17 37.57435 28.34972 32444 ft 508 kts 123°
2026-05-06 12:17 37.55108 28.39090 32911 ft 507 kts 123°
2026-05-06 12:18 37.52745 28.43268 33404 ft 506 kts 124°
2026-05-06 12:18 37.50444 28.47333 33899 ft 505 kts 123°
2026-05-06 12:18 37.48124 28.51428 34324 ft 505 kts 124°
2026-05-06 12:18 37.45821 28.55486 34722 ft 504 kts 124°
2026-05-06 12:19 37.43503 28.59566 35101 ft 503 kts 124°
2026-05-06 12:19 37.41174 28.63662 35524 ft 501 kts 124°
2026-05-06 12:19 37.38873 28.67717 35862 ft 501 kts 123°
2026-05-06 12:19 37.36801 28.71860 36181 ft 500 kts 117°
2026-05-06 12:20 37.35088 28.76279 36624 ft 497 kts 110°
2026-05-06 12:20 37.33770 28.80898 36987 ft 496 kts 104°
2026-05-06 12:20 37.32765 28.85564 37507 ft 492 kts 101°
2026-05-06 12:20 37.31949 28.89946 37867 ft 491 kts 99°
2026-05-06 12:21 37.31178 28.94284 38175 ft 490 kts 99°
2026-05-06 12:21 37.30404 28.98611 38377 ft 492 kts 100°
2026-05-06 12:21 37.29576 29.03075 38662 ft 492 kts 100°
2026-05-06 12:21 37.28733 29.07462 38931 ft 493 kts 101°
2026-05-06 12:22 37.27851 29.11929 39073 ft 494 kts 101°
2026-05-06 12:22 37.26976 29.16274 39085 ft 495 kts 101°
2026-05-06 12:22 37.25128 29.25284 39089 ft 491 kts 102°
2026-05-06 12:23 37.23283 29.34165 39080 ft 493 kts 102°
2026-05-06 12:23 37.21331 29.43504 39086 ft 491 kts 102°
2026-05-06 12:24 37.19359 29.52906 39097 ft 493 kts 102°
2026-05-06 12:24 37.17401 29.62233 39103 ft 492 kts 102°
2026-05-06 12:25 37.15453 29.71471 39089 ft 493 kts 103°
2026-05-06 12:25 37.13517 29.80602 39099 ft 491 kts 103°
2026-05-06 12:26 37.11603 29.89596 39105 ft 492 kts 103°
2026-05-06 12:26 37.09612 29.98914 39106 ft 492 kts 103°
2026-05-06 12:27 37.07744 30.07608 39132 ft 492 kts 103°
2026-05-06 12:27 37.05803 30.16635 39098 ft 491 kts 103°
2026-05-06 12:28 37.03802 30.25903 39090 ft 493 kts 103°
2026-05-06 12:28 37.01775 30.35250 39091 ft 493 kts 103°
2026-05-06 12:29 36.99714 30.44708 39079 ft 492 kts 103°
2026-05-06 12:29 36.97685 30.53971 39069 ft 493 kts 103°
2026-05-06 12:30 36.95629 30.63320 39057 ft 493 kts 103°
2026-05-06 12:30 36.93527 30.72848 39040 ft 492 kts 104°
2026-05-06 12:31 36.92026 30.82429 39036 ft 490 kts 94°
2026-05-06 12:31 36.91436 30.92147 39034 ft 489 kts 90°
2026-05-06 12:32 36.91094 31.01875 39028 ft 488 kts 90°
2026-05-06 12:32 36.90744 31.11488 39042 ft 488 kts 90°
2026-05-06 12:33 36.90361 31.20981 39037 ft 489 kts 90°
2026-05-06 12:33 36.89944 31.30708 39046 ft 489 kts 90°
2026-05-06 12:34 36.89531 31.40331 39065 ft 488 kts 90°
2026-05-06 12:34 36.89563 31.50017 39071 ft 487 kts 85°
2026-05-06 12:35 36.89946 31.59713 39103 ft 486 kts 84°
2026-05-06 12:35 36.90328 31.69380 39085 ft 487 kts 85°
2026-05-06 12:36 36.90592 31.78980 39091 ft 488 kts 88°
2026-05-06 12:36 36.90417 31.88763 39103 ft 489 kts 90°
2026-05-06 12:37 36.90113 31.98507 39085 ft 490 kts 90°
2026-05-06 12:37 36.89828 32.08255 39079 ft 488 kts 90°
2026-05-06 12:38 36.89567 32.17960 39103 ft 489 kts 90°
2026-05-06 12:38 36.89315 32.27635 39116 ft 488 kts 90°
2026-05-06 12:39 36.89071 32.36885 39109 ft 490 kts 90°
2026-05-06 12:39 36.88829 32.45893 39092 ft 489 kts 90°
2026-05-06 12:40 36.88567 32.55341 39076 ft 489 kts 90°
2026-05-06 12:40 36.88313 32.64416 39081 ft 489 kts 90°
2026-05-06 12:41 36.88040 32.73975 39083 ft 490 kts 91°
2026-05-06 12:41 36.87756 32.83629 39082 ft 489 kts 91°
2026-05-06 12:42 36.87465 32.93158 39081 ft 490 kts 91°
2026-05-06 12:42 36.87191 33.01955 39079 ft 491 kts 91°
2026-05-06 12:43 36.86907 33.10898 39086 ft 490 kts 91°
2026-05-06 12:43 36.86599 33.20331 39092 ft 490 kts 91°
2026-05-06 12:44 36.86332 33.29865 39088 ft 490 kts 88°
2026-05-06 12:44 36.86577 33.38797 39085 ft 489 kts 85°
2026-05-06 12:45 36.87105 33.48397 39092 ft 490 kts 84°
2026-05-06 12:46 36.87865 33.62753 39086 ft 491 kts 85°
2026-05-06 12:46 36.88313 33.72224 39088 ft 491 kts 85°
2026-05-06 12:47 36.88715 33.81193 39086 ft 494 kts 86°
2026-05-06 12:47 36.88927 33.86021 38898 ft 496 kts 85°
2026-05-06 12:47 36.89142 33.90957 38600 ft 493 kts 85°
2026-05-06 12:47 36.89349 33.95794 38215 ft 490 kts 85°
2026-05-06 12:48 36.89554 34.00597 37809 ft 488 kts 85°
2026-05-06 12:48 36.89752 34.05296 37422 ft 488 kts 85°
2026-05-06 12:48 36.89951 34.10021 37026 ft 487 kts 85°
2026-05-06 12:48 36.90153 34.14867 36614 ft 488 kts 85°
2026-05-06 12:49 36.90350 34.19668 36217 ft 488 kts 85°
2026-05-06 12:49 36.90545 34.24481 35839 ft 487 kts 85°
2026-05-06 12:49 36.90739 34.29287 35534 ft 488 kts 85°
2026-05-06 12:49 36.90926 34.33949 35232 ft 489 kts 85°
2026-05-06 12:50 36.91111 34.38641 34917 ft 488 kts 85°
2026-05-06 12:50 36.91280 34.42968 34622 ft 487 kts 85°
2026-05-06 12:50 36.91445 34.47210 34275 ft 489 kts 85°
2026-05-06 12:50 36.91611 34.51499 33786 ft 489 kts 85°
2026-05-06 12:51 36.91775 34.55762 33229 ft 489 kts 85°
2026-05-06 12:51 36.91935 34.59988 32641 ft 489 kts 85°
2026-05-06 12:51 36.92096 34.64323 32039 ft 489 kts 84°
2026-05-06 12:51 36.92252 34.68588 31445 ft 490 kts 85°
2026-05-06 12:52 36.92411 34.72973 30836 ft 492 kts 85°
2026-05-06 12:52 36.92574 34.77474 30217 ft 492 kts 85°
2026-05-06 12:52 36.92726 34.81747 29588 ft 492 kts 85°
2026-05-06 12:52 36.92880 34.86089 28954 ft 492 kts 85°
2026-05-06 12:53 36.93037 34.90586 28303 ft 492 kts 85°
2026-05-06 12:53 36.93193 34.95101 27637 ft 492 kts 85°
2026-05-06 12:53 36.93350 34.99681 26973 ft 492 kts 85°
2026-05-06 12:53 36.93510 35.04381 26280 ft 493 kts 85°
2026-05-06 12:54 36.93658 35.08749 25650 ft 495 kts 85°
2026-05-06 12:54 36.93774 35.13205 24993 ft 493 kts 88°
2026-05-06 12:54 36.93613 35.17529 24346 ft 489 kts 95°
2026-05-06 12:54 36.92969 35.21739 23692 ft 484 kts 105°
2026-05-06 12:55 36.91813 35.25710 23055 ft 479 kts 114°
2026-05-06 12:55 36.90256 35.29367 22431 ft 474 kts 121°
2026-05-06 12:55 36.88484 35.32813 21860 ft 469 kts 124°
2026-05-06 12:55 36.86601 35.36195 21278 ft 466 kts 126°
2026-05-06 12:56 36.84720 35.39504 20701 ft 462 kts 126°
2026-05-06 12:56 36.82869 35.42770 20139 ft 459 kts 125°
2026-05-06 12:56 36.81051 35.46014 19566 ft 454 kts 125°
2026-05-06 12:56 36.79263 35.49246 19017 ft 449 kts 124°
2026-05-06 12:57 36.77523 35.52420 18466 ft 443 kts 124°
2026-05-06 12:57 36.75796 35.55597 17979 ft 432 kts 124°
2026-05-06 12:57 36.74152 35.58641 17554 ft 421 kts 124°
2026-05-06 12:57 36.72533 35.61653 17153 ft 410 kts 124°
2026-05-06 12:58 36.70993 35.64531 16762 ft 400 kts 124°
2026-05-06 12:58 36.69467 35.67387 16364 ft 390 kts 124°
2026-05-06 12:58 36.67974 35.70184 15965 ft 381 kts 124°
2026-05-06 12:58 36.66534 35.72881 15568 ft 372 kts 124°
2026-05-06 12:59 36.65118 35.75532 15171 ft 365 kts 124°
2026-05-06 12:59 36.63734 35.78120 14796 ft 357 kts 124°
2026-05-06 12:59 36.62348 35.80711 14439 ft 349 kts 124°
2026-05-06 12:59 36.60994 35.83238 14084 ft 342 kts 124°
2026-05-06 13:00 36.59680 35.85683 13734 ft 335 kts 124°
2026-05-06 13:00 36.58370 35.88118 13380 ft 329 kts 124°
2026-05-06 13:00 36.57098 35.90483 13025 ft 324 kts 124°
2026-05-06 13:00 36.55853 35.92799 12671 ft 319 kts 124°
2026-05-06 13:01 36.54629 35.95074 12315 ft 314 kts 124°
2026-05-06 13:01 36.53429 35.97304 11963 ft 310 kts 124°
2026-05-06 13:01 36.52227 35.99538 11611 ft 305 kts 124°
2026-05-06 13:01 36.51004 36.01808 11317 ft 300 kts 124°
2026-05-06 13:02 36.49839 36.03972 11013 ft 295 kts 124°
2026-05-06 13:02 36.48708 36.06070 10723 ft 290 kts 124°
2026-05-06 13:02 36.47449 36.08402 10390 ft 286 kts 124°
2026-05-06 13:02 36.46325 36.10484 10090 ft 284 kts 124°
2026-05-06 13:03 36.45202 36.12563 9770 ft 282 kts 124°
2026-05-06 13:03 36.44033 36.14726 9412 ft 280 kts 124°
2026-05-06 13:03 36.42958 36.16713 9133 ft 276 kts 124°
2026-05-06 13:03 36.41891 36.18685 8834 ft 273 kts 124°
2026-05-06 13:04 36.40785 36.20726 8494 ft 271 kts 124°
2026-05-06 13:04 36.39710 36.22711 8177 ft 269 kts 124°
2026-05-06 13:04 36.38697 36.24675 7837 ft 266 kts 118°
2026-05-06 13:04 36.38070 36.26825 7532 ft 262 kts 95°
2026-05-06 13:05 36.38354 36.29043 7231 ft 257 kts 63°
2026-05-06 13:05 36.39419 36.30790 6960 ft 253 kts 41°
2026-05-06 13:05 36.40830 36.32060 6731 ft 248 kts 29°
2026-05-06 13:05 36.42348 36.33052 6571 ft 240 kts 26°
2026-05-06 13:06 36.43850 36.33971 6445 ft 233 kts 26°
2026-05-06 13:06 36.45295 36.34878 6309 ft 225 kts 27°
2026-05-06 13:06 36.46716 36.35794 6150 ft 216 kts 27°
2026-05-06 13:06 36.48050 36.36664 6002 ft 213 kts 27°
2026-05-06 13:07 36.49379 36.37531 5864 ft 213 kts 27°
2026-05-06 13:07 36.50698 36.38392 5674 ft 213 kts 27°
2026-05-06 13:07 36.52003 36.39244 5415 ft 211 kts 27°
2026-05-06 13:07 36.53308 36.40097 5111 ft 208 kts 27°
2026-05-06 13:08 36.54565 36.41018 4803 ft 206 kts 37°
2026-05-06 13:08 36.55426 36.42391 4525 ft 201 kts 72°
2026-05-06 13:08 36.55572 36.44085 4278 ft 195 kts 97°
2026-05-06 13:08 36.55257 36.45689 4026 ft 189 kts 117°
2026-05-06 13:09 36.54507 36.46962 3840 ft 179 kts 146°
2026-05-06 13:09 36.53358 36.47493 3806 ft 176 kts 176°
2026-05-06 13:09 36.52201 36.47146 3793 ft 173 kts 221°
2026-05-06 13:09 36.51394 36.46030 3804 ft 172 kts 230°
2026-05-06 13:10 36.50570 36.44908 3805 ft 172 kts 226°
2026-05-06 13:10 36.49750 36.43736 3804 ft 172 kts 231°
2026-05-06 13:10 36.48928 36.42577 3717 ft 180 kts 225°
2026-05-06 13:10 36.47876 36.41414 3500 ft 188 kts 219°
2026-05-06 13:11 36.46794 36.40350 3307 ft 185 kts 219°
2026-05-06 13:11 36.45705 36.39247 2974 ft 189 kts 220°
2026-05-06 13:11 36.44670 36.38176 2668 ft 173 kts 221°
2026-05-06 13:11 36.43737 36.37179 2289 ft 166 kts 222°
2026-05-06 13:12 36.42827 36.36205 1955 ft 154 kts 223°
2026-05-06 13:12 36.41987 36.35297 1613 ft 146 kts 221°
2026-05-06 13:12 36.41144 36.34399 1243 ft 149 kts 225°
2026-05-06 13:12 36.40345 36.33499 1059 ft 141 kts 227°
2026-05-06 13:13 36.39578 36.32568 861 ft 143 kts 225°
2026-05-06 13:13 36.38793 36.31690 692 ft 144 kts 225°
2026-05-06 13:13 36.38010 36.30775 525 ft 143 kts 225°
2026-05-06 13:13 36.37220 36.29878 374 ft 141 kts 224°
2026-05-06 13:14 36.36475 36.29025 288 ft 123 kts 224°
2026-05-06 13:14 36.36105 36.28594 288 ft 19 kts 223°
2026-05-06 13:14 36.36089 36.28497 288 ft 11 kts 303°
2026-05-06 13:14 36.36137 36.28426 288 ft 10 kts 310°
2026-05-06 13:15 36.36181 36.28363 288 ft 9 kts 310°
2026-05-06 13:15 36.36212 36.28322 288 ft 4 kts 335°
2026-05-06 13:15 36.36238 36.28325 288 ft 3 kts 41°
2026-05-06 13:15 36.36253 36.28329 288 ft 2 kts 338°
2026-05-06 13:16 36.36263 36.28310 288 ft 2 kts 288°
2026-05-06 13:16 36.36268 36.28285 288 ft 3 kts 285°
2026-05-06 13:16 36.36269 36.28268 288 ft 0 kts 274°